Location: Gollag?dem
(17.0207°N, 80.7261°E)
Time: 11:35:21
(UTC+00:00)

SPOT 5 - Pass Details

Date: 03 August 2024
Orbit: 619 x 808 km, 98.1° (Epoch: 12 September)

Event Time Altitude Azimuth Distance (km) Brightness Sun altitude
Exits shadow 15:14:53 28° 28° (NNE) 1,454 4.4 -28.3°
Drops below altitude 10° 15:17:41 10° 7° (N) 2,379 5.8 -28.9°
Sets 15:20:10 0° 360° (N) 3,319 6.7 -29.4°
